Weather in Monza

Italy     45°35′02″N   9°16′15″E
temp.,
°C
wind,
m/s
gust,
m/s
humid.,
%
clouds,
%
prec.,
mm/h
press.,
hPa
HPBL,
m
23 april, fri
fri2323:00+13e23675 0.0 101998
02:00+11ene24765 0.0 1020130
05:00+10e238141 0.0 102095
08:00+11e2478100 0.0 1022266
11:00+13e246897 0.0 1023379
14:00+17ese23525 0.0 10221008
17:00+18se324838 0.0 10211587
20:00+15ese24642 0.0 1022146
24 april, sat
sat2423:00+13e23740 0.0 102370
02:00+11e12800 0.0 102458
05:00+11ese11845 0.0 102325
08:00+12e11780 0.0 1023105
11:00+17sse11586 0.0 1023788
14:00+20sse21469 0.0 10211624
17:00+21sse334472 0.0 10181751
20:00+17sse24608 0.0 1019191
25 april, sun
sun2523:00+15ese11665 0.0 101922
02:00+13ene1173100 0.0 101924
05:00+12e117972 0.0 101813
08:00+13ese1176100 0.0 1019125
11:00+18s21556 0.0 1018746
14:00+21sse214675 0.0 10171419
17:00+22se3146100 0.0 10151515
20:00+19se2363100 0.0 1015123
26 april, mon
mon2623:00+16e2575100 0.1 1016159
02:00+15e3776100 0.2 1016300
05:00+14ese2670100 0.1 1015274
08:00+13ene3778100 0.3 1015362
11:00+14e3774100 0.0 1015548
14:00+14ne3675100 0.2 1014581
17:00+16ene3461100 0.0 10111091
20:00+13e2785100 0.7 1011503
27 april, tue
tue2723:00+11e3895100 4.6 1011515
02:00+10ese2796100 9.8 1009428
05:00+10e2796100 3.4 1006392
08:00+10ese2597100 6.3 1005324
11:00+11se1396100 1.6 1005267
14:00+11ese1295100 2.5 1004254
17:00+11sse1295100 0.3 1003276
20:00+11ene1297100 1.4 1002144